Regional Weather Roundup
Issued by NWS Charleston, WV

Home | Current Version | Previous Version | Graphics & Text | Print | Product List | Glossary On
Versions: 1 2 3 4 5 6 7 8 9 10 11 12 13 14 15 16 17 18 19 20 21 22 23 24 25 26 27 28 29 30 31 32 33 34 35 36 37 38 39 40 41 42 43 44 45 46 47 48 49
000
ASUS41 KRLX 251710
RWRRLX
West Virginia Regional Weather Roundup
National Weather Service Charleston WV
1200 PM EST SUN JAN 25 2015

Note: "fair" indicates few or no clouds below 12,000 feet with no
significant weather and/or obstructions to visibility.

WVZ003-251800-
Northern Panhandle of West Virginia

CITY           SKY/WX    TMP DP  RH WIND       PRES   REMARKS
WHEELING       CLOUDY    34  31  88 CALM      29.79F FOG
$$

WVZ009-251800-
Northwest West Virginia

CITY           SKY/WX    TMP DP  RH WIND       PRES   REMARKS
PARKERSBURG    CLOUDY    38  33  82 SE3       29.82F
$$

WVZ006-251800-
Western West Virginia

CITY           SKY/WX    TMP DP  RH WIND       PRES   REMARKS
HUNTINGTON     CLOUDY    40  32  73 S5        29.77F
$$

WVZ015-251800-
West Central West Virginia

CITY           SKY/WX    TMP DP  RH WIND       PRES   REMARKS
CHARLESTON     CLOUDY    43  33  68 SE3       29.78F
$$

WVZ022-031-251800-
North Central West Virginia

CITY           SKY/WX    TMP DP  RH WIND       PRES   REMARKS
CLARKSBURG     LGT RAIN  40  34  79 SW7       29.80F
MORGANTOWN     CLOUDY    36  30  79 VRB3      29.80F
$$

WVZ025-035-042-045-251800-
Southern West Virginia

CITY           SKY/WX    TMP DP  RH WIND       PRES   REMARKS
BECKLEY        CLOUDY    41  31  67 SW3       29.79F
LOGAN            N/A     41  32  70 S5        29.78F
BLUEFIELD      PTSUNNY   38  30  73 S5        29.80S
LEWISBURG      CLOUDY    37  31  78 CALM      29.81F
$$

WVZ047-251800-
Northern Mountains of West Virginia

CITY           SKY/WX    TMP DP  RH WIND       PRES   REMARKS
ELKINS         PTSUNNY   41  33  73 VRB6      29.79F
$$

WVZ052-251800-
Eastern Panhandle of West Virginia

CITY           SKY/WX    TMP DP  RH WIND       PRES   REMARKS
MARTINSBURG    PTSUNNY   45  30  55 SW7       29.82F
PETERSBURG     CLOUDY    46  29  52 S6        29.80F
$$



USA.gov is the U.S. government's official web portal to all federal, state and local government web resources and services.